| time (UTC) | temp F | wind direction | speed knots | gust knots | rain 1hr in | rain 24hr in | rain mn in | humidity % | barometer mb |
| 20260901110022 | 74 | 195 | 0.0 | 0.9 | 0.00 | 0.09 | 0.00 | 91 | 1008.1 |
| 20260901105018 | 74 | 0.0 | 0.0 | 0.00 | 0.09 | 0.00 | 91 | 1008.0 | |
| 20260901104034 | 74 | 194 | 0.0 | 1.7 | 0.00 | 0.09 | 0.00 | 90 | 1008.0 |
| 20260901103031 | 74 | 191 | 0.9 | 1.7 | 0.00 | 0.09 | 0.00 | 90 | 1008.0 |
| 20260901102027 | 74 | 0.0 | 0.0 | 0.00 | 0.09 | 0.00 | 90 | 1007.9 | |
| 20260901101023 | 74 | 188 | 0.0 | 0.9 | 0.00 | 0.09 | 0.00 | 90 | 1007.9 |
| 20260901100018 | 74 | 187 | 0.0 | 1.7 | 0.00 | 0.09 | 0.00 | 90 | 1007.9 |
| 20260901095054 | 75 | 194 | 0.0 | 1.7 | 0.00 | 0.09 | 0.00 | 90 | 1008.0 |
| 20260901094029 | 75 | 196 | 0.9 | 1.7 | 0.00 | 0.09 | 0.00 | 90 | 1007.8 |
| 20260901093046 | 75 | 220 | 0.0 | 1.7 | 0.00 | 0.09 | 0.00 | 90 | 1007.8 |
| 20260901092022 | 75 | 229 | 0.0 | 1.7 | 0.00 | 0.09 | 0.00 | 90 | 1007.7 |
| 20260901091018 | 74 | 289 | 0.9 | 2.6 | 0.00 | 0.09 | 0.00 | 90 | 1007.7 |
| 20260901090035 | 74 | 274 | 0.0 | 1.7 | 0.00 | 0.09 | 0.00 | 90 | 1007.7 |
| 20260901085031 | 74 | 247 | 0.9 | 1.7 | 0.00 | 0.09 | 0.00 | 90 | 1007.7 |
| 20260901084027 | 74 | 233 | 0.0 | 0.9 | 0.00 | 0.09 | 0.00 | 90 | 1007.6 |
| 20260901083023 | 75 | 233 | 0.0 | 0.9 | 0.00 | 0.09 | 0.00 | 90 | 1007.7 |
| 20260901082019 | 75 | 233 | 0.0 | 0.9 | 0.00 | 0.09 | 0.00 | 90 | 1007.6 |
| 20260901081035 | 75 | 162 | 0.0 | 1.7 | 0.00 | 0.09 | 0.00 | 90 | 1007.8 |
| 20260901080030 | 75 | 263 | 0.9 | 2.6 | 0.00 | 0.09 | 0.00 | 90 | 1007.8 |
| 20260901075027 | 75 | 226 | 0.9 | 1.7 | 0.00 | 0.09 | 0.00 | 90 | 1007.6 |
| 20260901074023 | 75 | 257 | 0.0 | 0.9 | 0.00 | 0.09 | 0.00 | 90 | 1007.8 |
| 20260901073019 | 75 | 257 | 0.0 | 1.7 | 0.00 | 0.09 | 0.00 | 90 | 1007.7 |
| 20260901072034 | 75 | 260 | 0.0 | 0.9 | 0.00 | 0.09 | 0.00 | 89 | 1007.7 |
| 20260901071030 | 75 | 261 | 0.0 | 0.9 | 0.00 | 0.09 | 0.00 | 89 | 1007.7 |
| 20260901070026 | 75 | 285 | 0.0 | 1.7 | 0.00 | 0.09 | 0.00 | 89 | 1007.6 |
| 20260901065101 | 75 | 234 | 0.9 | 1.7 | 0.00 | 0.09 | 0.00 | 89 | 1007.5 |
| 20260901064017 | 75 | 262 | 0.0 | 0.9 | 0.00 | 0.09 | 0.00 | 89 | 1007.6 |
| 20260901063032 | 76 | 0.0 | 0.0 | 0.00 | 0.09 | 0.00 | 89 | 1007.6 | |
| 20260901062028 | 76 | 262 | 0.0 | 0.9 | 0.00 | 0.09 | 0.00 | 89 | 1007.4 |
| 20260901061024 | 76 | 262 | 0.0 | 0.9 | 0.00 | 0.09 | 0.00 | 89 | 1007.5 |
| 20260901060021 | 76 | 261 | 0.0 | 0.9 | 0.00 | 0.09 | 0.00 | 89 | 1007.6 |
| 20260901055057 | 76 | 244 | 0.0 | 1.7 | 0.00 | 0.09 | 0.00 | 89 | 1007.6 |
| 20260901054033 | 76 | 280 | 0.0 | 1.7 | 0.00 | 0.09 | 0.00 | 89 | 1007.6 |
| 20260901053029 | 76 | 301 | 0.9 | 1.7 | 0.00 | 0.09 | 0.00 | 88 | 1007.5 |
| 20260901052025 | 76 | 277 | 0.0 | 1.7 | 0.00 | 0.09 | 0.00 | 88 | 1007.6 |
| 20260901051021 | 76 | 187 | 0.0 | 1.7 | 0.00 | 0.09 | 0.00 | 88 | 1007.6 |
| 20260901050017 | 76 | 257 | 0.0 | 1.7 | 0.00 | 0.09 | 0.00 | 88 | 1007.8 |
| 20260901045034 | 76 | 180 | 0.0 | 1.7 | 0.00 | 0.09 | 0.00 | 88 | 1007.8 |
| 20260901044029 | 76 | 255 | 0.9 | 2.6 | 0.00 | 0.09 | 0.00 | 88 | 1007.9 |
| 20260901043025 | 76 | 266 | 0.9 | 1.7 | 0.00 | 0.09 | 0.00 | 88 | 1008.0 |
| 20260901042021 | 76 | 210 | 0.0 | 0.9 | 0.00 | 0.09 | 0.00 | 87 | 1008.0 |
| 20260901041017 | 76 | 197 | 0.0 | 0.9 | 0.00 | 0.09 | 0.00 | 87 | 1008.0 |
| 20260901040034 | 76 | 196 | 0.0 | 0.9 | 0.00 | 0.09 | 0.00 | 87 | 1008.2 |
| 20260901035030 | 77 | 0.0 | 0.0 | 0.00 | 0.09 | 0.00 | 87 | 1008.3 | |
| 20260901034026 | 77 | 0.0 | 0.0 | 0.00 | 0.09 | 0.00 | 87 | 1008.4 | |
| 20260901033043 | 77 | 192 | 0.0 | 0.9 | 0.00 | 0.09 | 0.00 | 86 | 1008.5 |
| 20260901032018 | 77 | 0.0 | 0.0 | 0.00 | 0.09 | 0.00 | 86 | 1008.7 | |
| 20260901031034 | 77 | 176 | 0.0 | 0.9 | 0.00 | 0.09 | 0.00 | 86 | 1008.9 |
| 20260901030030 | 78 | 0.0 | 0.0 | 0.00 | 0.10 | 0.00 | 86 | 1008.7 | |
| 20260901025026 | 78 | 196 | 0.0 | 1.7 | 0.00 | 0.10 | 0.00 | 86 | 1008.9 |
| 20260901024023 | 78 | 287 | 0.9 | 0.9 | 0.00 | 0.10 | 0.00 | 85 | 1008.6 |
| 20260901023019 | 78 | 0.0 | 0.0 | 0.00 | 0.11 | 0.00 | 85 | 1008.9 | |
| 20260901022035 | 78 | 288 | 0.9 | 1.7 | 0.00 | 0.12 | 0.00 | 85 | 1009.0 |
| 20260901021051 | 78 | 268 | 0.9 | 1.7 | 0.00 | 0.12 | 0.00 | 85 | 1009.4 |
| 20260901020047 | 79 | 0.0 | 0.0 | 0.00 | 0.12 | 0.00 | 85 | 1008.9 | |
| 20260901015024 | 79 | 209 | 0.0 | 0.9 | 0.00 | 0.12 | 0.00 | 85 | 1009.1 |
| 20260901014019 | 79 | 176 | 0.0 | 0.9 | 0.00 | 0.12 | 0.00 | 85 | 1008.6 |
| 20260901013035 | 79 | 153 | 0.0 | 1.7 | 0.00 | 0.12 | 0.00 | 84 | 1008.6 |
| 20260901012051 | 79 | 166 | 0.9 | 1.7 | 0.00 | 0.13 | 0.00 | 84 | 1008.4 |
| 20260901011108 | 79 | 0.0 | 0.0 | 0.00 | 0.13 | 0.00 | 84 | 1008.6 | |
| 20260901010022 | 79 | 187 | 0.9 | 1.7 | 0.00 | 0.13 | 0.00 | 84 | 1008.6 |
| 20260901005018 | 80 | 187 | 0.0 | 1.7 | 0.00 | 0.13 | 0.00 | 83 | 1008.9 |
| 20260901004034 | 80 | 187 | 0.0 | 0.9 | 0.00 | 0.13 | 0.00 | 83 | 1009.0 |
| 20260901003051 | 81 | 184 | 0.0 | 2.6 | 0.00 | 0.13 | 0.00 | 83 | 1009.1 |
| 20260901002027 | 81 | 173 | 0.9 | 2.6 | 0.00 | 0.13 | 0.00 | 83 | 1008.9 |
| 20260901001023 | 81 | 257 | 0.0 | 0.9 | 0.00 | 0.13 | 0.00 | 82 | 1008.9 |
| 20260901000020 | 81 | 277 | 0.0 | 1.7 | 0.00 | 0.13 | 0.13 | 82 | 1008.6 |
| 20260831235035 | 82 | 221 | 0.0 | 0.9 | 0.00 | 0.13 | 0.13 | 82 | 1008.2 |
| 20260831234032 | 82 | 254 | 0.9 | 3.5 | 0.00 | 0.13 | 0.13 | 82 | 1008.0 |
| 20260831233028 | 82 | 119 | 2.6 | 8.7 | 0.00 | 0.13 | 0.13 | 81 | 1007.3 |
| 20260831232043 | 83 | 156 | 1.7 | 1.7 | 0.00 | 0.13 | 0.13 | 80 | 1008.7 |
| 20260831231019 | 83 | 250 | 0.0 | 0.9 | 0.00 | 0.13 | 0.13 | 80 | 1009.2 |
| 20260831230035 | 83 | 263 | 0.9 | 3.5 | 0.00 | 0.13 | 0.13 | 80 | 1008.9 |
| 20260831225050 | 84 | 187 | 0.0 | 0.9 | 0.00 | 0.13 | 0.13 | 79 | 1008.3 |
| 20260831224026 | 84 | 191 | 0.9 | 1.7 | 0.00 | 0.13 | 0.13 | 79 | 1008.3 |
| 20260831223022 | 84 | 242 | 1.7 | 5.2 | 0.00 | 0.14 | 0.13 | 79 | 1008.4 |
| 20260831222018 | 84 | 155 | 0.0 | 0.9 | 0.00 | 0.14 | 0.13 | 78 | 1008.5 |
| 20260831221035 | 84 | 272 | 0.9 | 1.7 | 0.00 | 0.14 | 0.13 | 78 | 1008.6 |
| 20260831220031 | 85 | 242 | 0.9 | 1.7 | 0.00 | 0.14 | 0.13 | 78 | 1008.4 |
| 20260831215046 | 85 | 275 | 1.7 | 6.1 | 0.00 | 0.14 | 0.13 | 78 | 1008.3 |
| 20260831214022 | 85 | 266 | 0.9 | 5.2 | 0.00 | 0.14 | 0.13 | 78 | 1008.2 |
| 20260831213018 | 85 | 263 | 1.7 | 3.5 | 0.00 | 0.14 | 0.13 | 77 | 1008.1 |
| 20260831212034 | 85 | 172 | 0.9 | 2.6 | 0.00 | 0.14 | 0.13 | 77 | 1007.9 |
| 20260831211030 | 85 | 192 | 0.9 | 7.0 | 0.00 | 0.14 | 0.13 | 78 | 1007.8 |
| 20260831210026 | 85 | 210 | 1.7 | 6.1 | 0.00 | 0.14 | 0.13 | 78 | 1007.7 |
| 20260831205022 | 85 | 178 | 0.9 | 3.5 | 0.00 | 0.14 | 0.13 | 78 | 1007.8 |
| 20260831204018 | 85 | 226 | 0.9 | 7.8 | 0.00 | 0.14 | 0.13 | 78 | 1007.9 |
| 20260831203054 | 85 | 277 | 1.7 | 3.5 | 0.00 | 0.14 | 0.13 | 78 | 1008.2 |
| 20260831202030 | 85 | 241 | 0.9 | 2.6 | 0.00 | 0.14 | 0.13 | 77 | 1008.3 |
| 20260831201026 | 85 | 284 | 1.7 | 5.2 | 0.00 | 0.14 | 0.13 | 77 | 1008.3 |
| 20260831200023 | 86 | 286 | 1.7 | 6.1 | 0.00 | 0.14 | 0.13 | 77 | 1008.4 |
| 20260831195018 | 86 | 255 | 1.7 | 6.1 | 0.00 | 0.15 | 0.13 | 77 | 1007.8 |
| 20260831194034 | 85 | 223 | 2.6 | 7.8 | 0.00 | 0.16 | 0.13 | 78 | 1007.9 |
| 20260831193051 | 85 | 229 | 1.7 | 5.2 | 0.00 | 0.17 | 0.13 | 77 | 1007.7 |
| 20260831192047 | 85 | 299 | 1.7 | 6.1 | 0.00 | 0.17 | 0.13 | 77 | 1007.8 |
| 20260831191023 | 86 | 281 | 2.6 | 9.6 | 0.00 | 0.17 | 0.13 | 78 | 1007.8 |
| 20260831190019 | 86 | 269 | 4.3 | 15.6 | 0.00 | 0.17 | 0.13 | 79 | 1007.5 |
| 20260831185055 | 86 | 271 | 2.6 | 7.0 | 0.00 | 0.17 | 0.13 | 79 | 1007.8 |
| 20260831184031 | 86 | 242 | 1.7 | 5.2 | 0.00 | 0.19 | 0.13 | 81 | 1007.8 |
| 20260831183027 | 86 | 194 | 3.5 | 8.7 | 0.00 | 0.19 | 0.13 | 81 | 1007.6 |
| 20260831182043 | 85 | 225 | 1.7 | 6.1 | 0.00 | 0.19 | 0.13 | 83 | 1007.5 |
| 20260831181019 | 85 | 196 | 2.6 | 7.8 | 0.00 | 0.19 | 0.13 | 83 | 1007.6 |
| 20260831180035 | 84 | 201 | 1.7 | 7.8 | 0.00 | 0.19 | 0.13 | 84 | 1007.4 |
| 20260831175051 | 84 | 223 | 3.5 | 12.2 | 0.00 | 0.19 | 0.13 | 84 | 1007.5 |
| 20260831174107 | 83 | 162 | 2.6 | 6.1 | 0.00 | 0.19 | 0.13 | 85 | 1007.8 |
| 20260831173023 | 82 | 291 | 1.7 | 8.7 | 0.00 | 0.19 | 0.13 | 86 | 1008.1 |
| 20260831172039 | 81 | 258 | 1.7 | 5.2 | 0.00 | 0.19 | 0.13 | 88 | 1007.9 |
| 20260831171035 | 80 | 212 | 1.7 | 6.1 | 0.00 | 0.19 | 0.13 | 88 | 1008.0 |
| 20260831170030 | 79 | 186 | 3.5 | 11.3 | 0.00 | 0.19 | 0.13 | 88 | 1008.0 |
| 20260831165047 | 78 | 192 | 2.6 | 8.7 | 0.00 | 0.19 | 0.13 | 90 | 1008.1 |
| 20260831164022 | 77 | 164 | 2.6 | 7.8 | 0.00 | 0.19 | 0.13 | 90 | 1008.1 |
| 20260831163018 | 76 | 185 | 2.6 | 11.3 | 0.00 | 0.19 | 0.13 | 91 | 1008.2 |
| 20260831162035 | 75 | 156 | 1.7 | 3.5 | 0.00 | 0.19 | 0.13 | 92 | 1008.3 |
| 20260831161031 | 74 | 142 | 1.7 | 3.5 | 0.00 | 0.19 | 0.13 | 92 | 1008.4 |
| 20260831160027 | 73 | 121 | 1.7 | 6.1 | 0.00 | 0.19 | 0.13 | 92 | 1008.6 |
| 20260831155043 | 72 | 167 | 1.7 | 8.7 | 0.00 | 0.19 | 0.13 | 92 | 1008.6 |
| 20260831154019 | 72 | 140 | 1.7 | 6.1 | 0.00 | 0.19 | 0.13 | 92 | 1008.6 |
| 20260831153016 | 71 | 132 | 1.7 | 5.2 | 0.00 | 0.19 | 0.13 | 92 | 1008.6 |
| 20260831152031 | 70 | 137 | 2.6 | 7.8 | 0.00 | 0.19 | 0.13 | 92 | 1008.7 |
| 20260831151027 | 70 | 153 | 2.6 | 7.0 | 0.00 | 0.19 | 0.13 | 92 | 1008.8 |
| 20260831150023 | 70 | 118 | 0.9 | 2.6 | 0.00 | 0.19 | 0.13 | 92 | 1008.7 |
| 20260831145020 | 70 | 151 | 0.9 | 2.6 | 0.00 | 0.19 | 0.13 | 92 | 1008.8 |
| 20260831144016 | 70 | 166 | 0.9 | 3.5 | 0.00 | 0.19 | 0.13 | 92 | 1008.6 |
| 20260831143033 | 69 | 132 | 0.9 | 3.5 | 0.00 | 0.19 | 0.13 | 92 | 1008.6 |
| 20260831142029 | 69 | 134 | 1.7 | 6.1 | 0.00 | 0.19 | 0.13 | 92 | 1008.5 |
| 20260831141025 | 69 | 134 | 1.7 | 5.2 | 0.00 | 0.19 | 0.13 | 92 | 1008.6 |
| 20260831140042 | 69 | 136 | 1.7 | 2.6 | 0.00 | 0.19 | 0.13 | 92 | 1008.7 |
| 20260831135018 | 69 | 137 | 0.9 | 3.5 | 0.00 | 0.19 | 0.13 | 91 | 1008.5 |
| 20260831134034 | 69 | 145 | 1.7 | 3.5 | 0.00 | 0.19 | 0.13 | 91 | 1008.7 |
| 20260831133030 | 69 | 136 | 0.0 | 2.6 | 0.05 | 0.19 | 0.13 | 91 | 1008.7 |
| 20260831132026 | 68 | 131 | 0.0 | 1.7 | 0.07 | 0.19 | 0.13 | 91 | 1008.8 |
| 20260831131042 | 68 | 132 | 0.0 | 0.9 | 0.08 | 0.19 | 0.13 | 91 | 1008.7 |
| 20260831130018 | 69 | 102 | 0.9 | 2.6 | 0.09 | 0.19 | 0.13 | 90 | 1008.6 |
| 20260831125035 | 69 | 112 | 0.9 | 1.7 | 0.09 | 0.22 | 0.13 | 90 | 1008.5 |
| 20260831124030 | 69 | 117 | 0.9 | 2.6 | 0.09 | 0.25 | 0.13 | 90 | 1008.8 |
| 20260831123026 | 70 | 233 | 0.9 | 2.6 | 0.05 | 0.20 | 0.08 | 89 | 1008.8 |
| 20260831122022 | 70 | 291 | 0.0 | 0.9 | 0.02 | 0.19 | 0.06 | 89 | 1008.8 |
| 20260831121037 | 71 | 289 | 0.9 | 2.6 | 0.01 | 0.19 | 0.04 | 89 | 1008.6 |
| 20260831120034 | 70 | 281 | 0.0 | 1.7 | 0.00 | 0.19 | 0.03 | 89 | 1008.1 |
| 20260831115050 | 70 | 213 | 0.9 | 1.7 | 0.00 | 0.20 | 0.03 | 89 | 1008.0 |
| 20260831114047 | 70 | 203 | 0.0 | 0.9 | 0.00 | 0.21 | 0.03 | 89 | 1007.8 |
| 20260831113022 | 70 | 178 | 0.0 | 1.7 | 0.00 | 0.22 | 0.03 | 89 | 1007.8 |
| 20260831112039 | 71 | 175 | 0.0 | 0.9 | 0.00 | 0.22 | 0.03 | 89 | 1007.6 |
| 20260831111034 | 71 | 167 | 0.0 | 2.6 | 0.00 | 0.22 | 0.03 | 89 | 1007.7 |